DW5963 Weather Reports


time (UTC)temp
C
wind
direction
speed
KPH
gust
KPH
rain 1hr
cm
rain 24hr
cm
rain mn
cm
humidity
%
barometer
mb
20260509070510 5 360 6.4 0.0 0.00 0.00 0.00 85 1010.1
20260509070008 5 360 4.8 0.0 0.00 0.00 0.00 85 1010.1
20260509065507 5 360 3.2 0.0 0.00 0.00 0.00 84 1009.9
20260509065006 6 360 4.8 0.0 0.00 0.00 0.00 84 1009.9
20260509064505 6 360 4.8 0.0 0.00 0.00 0.00 84 1009.9
20260509064004 6 360 4.8 0.0 0.00 0.00 0.00 84 1009.9
20260509063501 7 360 4.8 0.0 0.00 0.00 0.00 84 1009.9
20260509063001 7 360 6.4 0.0 0.00 0.00 0.05 84 1009.9
20260509062501 7 360 6.4 0.0 0.00 0.00 0.05 84 1009.8
20260509062000 7 360 8.0 0.0 0.00 0.00 0.05 85 1009.6
20260509061500 7 360 6.4 0.0 0.00 0.00 0.05 85 1009.5
20260509060501 8 360 6.4 0.0 0.00 0.00 0.05 85 1009.3
20260509060002 8 360 8.0 0.0 0.00 0.00 0.05 86 1009.4
20260509055504 8 360 8.0 0.0 0.00 0.00 0.05 86 1009.3
20260509055001 8 360 6.4 0.0 0.00 0.00 0.05 87 1009.1
20260509054614 8 360 4.8 0.0 0.00 0.00 0.05 88 1009.1
20260509054501 8 360 4.8 0.0 0.00 0.00 0.05 88 1009.0
20260509054100 8 360 4.8 0.0 0.00 0.00 0.05 88 1009.0
20260509054001 8 360 4.8 0.0 0.00 0.00 0.05 88 1009.0
20260509053602 8 360 6.4 0.0 0.00 0.00 0.05 88 1009.0
20260509053105 8 360 6.4 0.0 0.00 0.00 0.05 87 1009.1
20260509052601 8 360 6.4 0.0 0.00 0.00 0.05 87 1009.1
20260509052059 9 360 6.4 0.0 0.00 0.00 0.05 87 1009.1
20260509051600 8 360 6.4 0.0 0.00 0.00 0.05 86 1009.0
20260509051159 9 360 3.2 0.0 0.00 0.00 0.05 84 1008.8
20260509050600 9 360 3.2 0.0 0.00 0.00 0.05 84 1008.7
20260509050059 9 360 1.6 0.0 0.00 0.00 0.05 83 1008.5
20260509045559 9 360 0.0 0.0 0.00 0.00 0.05 83 1008.4
20260509045059 10 360 1.6 0.0 0.00 0.00 0.05 82 1008.4
20260509044559 10 360 3.2 0.0 0.00 0.00 0.05 81 1008.4
20260509044100 10 360 3.2 0.0 0.00 0.00 0.05 80 1008.1
20260509043558 10 360 3.2 0.0 0.00 0.00 0.05 79 1008.2
20260509043059 10 360 3.2 0.0 0.00 0.00 0.05 78 1008.3
20260509042603 10 360 3.2 0.0 0.00 0.00 0.03 77 1008.5
20260509042100 10 360 3.2 0.0 0.00 0.00 0.03 76 1008.6
20260509041559 10 360 4.8 0.0 0.00 0.00 0.00 76 1008.6
20260509041159 11 360 6.4 0.0 0.00 0.00 0.00 74 1008.5
20260509040558 11 360 8.0 0.0 0.00 0.00 0.00 73 1008.4
20260509040126 11 360 11.3 0.0 0.00 0.00 0.00 72 1008.2
20260509035558 11 360 12.9 0.0 0.00 0.00 0.00 70 1008.1
20260509035057 11 360 12.9 0.0 0.00 0.00 0.00 68 1008.1
20260509034601 11 360 12.9 0.0 0.00 0.00 0.00 68 1007.9
20260509034056 11 360 11.3 0.0 0.00 0.00 0.00 67 1007.8
20260509033557 11 360 11.3 0.0 0.00 0.00 0.00 67 1007.7
20260509033057 11 360 11.3 0.0 0.00 0.00 0.00 67 1007.7
20260509032557 11 360 12.9 0.0 0.00 0.00 0.00 66 1007.6
20260509032056 11 360 12.9 0.0 0.00 0.00 0.00 65 1007.8
20260509031559 12 360 12.9 0.0 0.00 0.00 0.00 64 1007.7
20260509031159 12 360 12.9 0.0 0.00 0.00 0.00 62 1008.0
20260509030558 12 360 14.5 0.0 0.00 0.00 0.00 62 1008.2
20260509030100 12 360 14.5 0.0 0.00 0.00 0.00 61 1008.2
20260509025557 12 360 14.5 0.0 0.00 0.00 0.00 61 1008.1
20260509025057 12 360 16.1 0.0 0.00 0.00 0.00 62 1007.9
20260509024558 12 360 17.7 0.0 0.00 0.00 0.00 61 1007.8
20260509024057 12 360 17.7 0.0 0.00 0.00 0.00 61 1007.5
20260509023602 12 360 17.7 0.0 0.00 0.00 0.00 63 1007.3
20260509023057 12 360 17.7 0.0 0.00 0.00 0.00 64 1007.3
20260509022559 12 360 16.1 0.0 0.00 0.00 0.00 66 1007.1
20260509022057 12 360 11.3 0.0 0.00 0.00 0.00 69 1007.0
20260509021557 12 360 6.4 0.0 0.00 0.00 0.00 71 1006.8
20260509021156 12 360 6.4 0.0 0.00 0.00 0.00 70 1006.6
20260509020555 12 360 6.4 0.0 0.00 0.00 0.00 69 1006.5
20260509020055 12 360 8.0 0.0 0.00 0.00 0.00 69 1006.6
20260509015556 13 360 11.3 0.0 0.00 0.00 0.00 66 1006.6
20260509015056 13 360 12.9 0.0 0.00 0.00 0.00 66 1006.6
20260509014556 13 360 14.5 0.0 0.00 0.00 0.00 66 1006.8
20260509014056 13 360 11.3 0.0 0.00 0.00 0.00 65 1007.0
20260509013555 14 360 9.7 0.0 0.00 0.00 0.00 65 1007.1
20260509013056 15 360 9.7 0.0 0.00 0.00 0.00 61 1007.1
20260509012554 15 360 12.9 0.0 0.00 0.00 0.00 57 1007.1
20260509012055 15 360 14.5 0.0 0.00 0.00 0.00 55 1006.7
20260509011605 15 360 11.3 0.0 0.00 0.00 0.00 56 1006.4
20260509011155 15 360 6.4 0.0 0.00 0.00 0.00 62 1005.8
20260509010555 15 360 4.8 0.0 0.00 0.00 0.00 64 1005.7
20260509010055 15 360 6.4 0.0 0.00 0.00 0.00 65 1005.8
20260509005555 14 360 6.4 0.0 0.00 0.00 0.00 66 1006.1
20260509005056 14 360 4.8 0.0 0.00 0.00 0.00 68 1006.2
20260509004609 14 360 6.4 0.0 0.00 0.00 0.00 69 1006.4
20260509004055 14 360 8.0 0.0 0.00 0.00 0.00 69 1006.6
20260509003558 14 360 9.7 0.0 0.00 0.00 0.00 68 1006.4
20260509003055 14 360 11.3 0.0 0.00 0.00 0.00 66 1006.0
20260509002556 14 360 14.5 0.0 0.00 0.00 0.00 67 1006.2
20260509002054 14 360 22.5 0.0 0.00 0.00 0.00 65 1006.3
20260509001554 15 360 35.4 0.0 0.00 0.00 0.00 61 1006.5
20260509001156 17 360 33.8 0.0 0.00 0.00 0.00 45 1006.4
20260509000554 18 360 29.0 0.0 0.00 0.00 0.00 40 1005.9
20260509000056 20 360 24.1 0.0 0.00 0.00 0.00 33 1005.8
20260508235554 20 360 22.5 0.0 0.00 0.00 0.00 31 1005.4
20260508235052 20 360 22.5 0.0 0.00 0.00 0.00 31 1005.2
20260508234553 21 360 22.5 0.0 0.00 0.00 0.00 31 1005.0
20260508234052 21 360 19.3 0.0 0.00 0.00 0.00 30 1005.0
20260508233552 21 360 17.7 0.0 0.00 0.00 0.00 30 1005.0
20260508233052 22 360 20.9 0.0 0.00 0.00 0.00 30 1005.2
20260508232553 22 360 22.5 0.0 0.00 0.00 0.00 29 1005.2
20260508232049 21 360 22.5 0.0 0.00 0.00 0.00 31 1005.4
20260508231550 21 360 24.1 0.0 0.00 0.00 0.00 31 1005.6
20260508231149 21 360 24.1 0.0 0.00 0.00 0.00 31 1005.7
20260508230548 21 360 22.5 0.0 0.00 0.00 0.00 31 1005.7
20260508230048 21 360 20.9 0.0 0.00 0.00 0.00 31 1005.7
20260508225547 21 360 20.9 0.0 0.00 0.00 0.00 31 1005.7
20260508225048 21 360 19.3 0.0 0.00 0.00 0.00 30 1005.8
20260508224546 21 360 17.7 0.0 0.00 0.00 0.00 31 1005.8
20260508224045 21 360 17.7 0.0 0.00 0.00 0.00 31 1005.9
20260508223545 21 360 17.7 0.0 0.00 0.00 0.00 32 1006.1
20260508223050 20 360 17.7 0.0 0.00 0.00 0.00 32 1006.3
20260508222544 20 360 19.3 0.0 0.00 0.00 0.00 32 1006.4
20260508222044 20 360 20.9 0.0 0.00 0.00 0.00 32 1006.6
20260508221544 20 360 20.9 0.0 0.00 0.00 0.00 32 1006.7
20260508221144 20 360 27.4 0.0 0.00 0.00 0.00 32 1006.8
20260508220544 20 360 30.6 0.0 0.00 0.00 0.00 32 1006.8
20260508220046 20 360 30.6 0.0 0.00 0.00 0.00 31 1006.9
20260508215544 20 360 30.6 0.0 0.00 0.00 0.00 29 1006.7
20260508215044 20 360 33.8 0.0 0.00 0.00 0.00 29 1006.7
20260508214553 20 360 29.0 0.0 0.00 0.00 0.00 28 1006.6
20260508214044 21 360 27.4 0.0 0.00 0.00 0.00 25 1006.4
20260508213544 21 360 29.0 0.0 0.00 0.00 0.00 24 1006.2
20260508213043 22 360 27.4 0.0 0.00 0.00 0.00 21 1006.1
20260508212543 23 360 27.4 0.0 0.00 0.00 0.00 22 1006.1
20260508212042 23 360 25.7 0.0 0.00 0.00 0.00 22 1006.0
20260508211543 23 360 24.1 0.0 0.00 0.00 0.00 23 1006.1
20260508211142 23 360 27.4 0.0 0.00 0.00 0.00 22 1006.2
20260508210541 23 360 27.4 0.0 0.00 0.00 0.00 22 1006.3
20260508210041 22 360 25.7 0.0 0.00 0.00 0.00 22 1006.2
20260508205539 23 360 25.7 0.0 0.00 0.00 0.00 22 1006.4
20260508205039 23 360 24.1 0.0 0.00 0.00 0.00 23 1006.4
20260508204543 23 360 25.7 0.0 0.00 0.00 0.00 23 1006.6
20260508204040 23 360 25.7 0.0 0.00 0.00 0.00 23 1006.6
20260508203537 22 360 24.1 0.0 0.00 0.00 0.00 23 1006.6
20260508203037 23 360 22.5 0.0 0.00 0.00 0.00 22 1006.8
20260508202537 22 360 22.5 0.0 0.00 0.00 0.00 25 1006.9
20260508202038 22 360 25.7 0.0 0.00 0.00 0.00 23 1007.1
20260508201538 23 360 25.7 0.0 0.00 0.00 0.00 24 1007.0
20260508201134 22 360 22.5 0.0 0.00 0.00 0.00 24 1007.0
20260508200538 22 360 20.9 0.0 0.00 0.00 0.00 24 1007.2
20260508200034 23 360 22.5 0.0 0.00 0.00 0.00 24 1007.3
20260508195532 22 360 20.9 0.0 0.00 0.00 0.00 24 1007.6
20260508195032 22 360 20.9 0.0 0.00 0.00 0.00 24 1007.6
20260508194532 22 360 24.1 0.0 0.00 0.00 0.00 23 1007.7
20260508194033 22 360 24.1 0.0 0.00 0.00 0.00 24 1007.8
20260508193531 22 360 20.9 0.0 0.00 0.00 0.00 24 1007.8
20260508193033 22 360 19.3 0.0 0.00 0.00 0.00 24 1007.8
20260508192530 22 360 17.7 0.0 0.00 0.00 0.00 24 1008.0
20260508192029 22 360 17.7 0.0 0.00 0.00 0.00 25 1008.0
20260508191532 21 360 19.3 0.0 0.00 0.00 0.00 26 1008.1
20260508191129 22 360 20.9 0.0 0.00 0.00 0.00 25 1008.2
20260508190529 22 360 20.9 0.0 0.00 0.00 0.00 25 1008.3
20260508190030 22 360 19.3 0.0 0.00 0.00 0.00 25 1008.4
20260508185529 21 360 17.7 0.0 0.00 0.00 0.00 25 1008.4
20260508185028 21 360 17.7 0.0 0.00 0.00 0.00 26 1008.4
20260508184531 22 360 19.3 0.0 0.00 0.00 0.00 25 1008.4
20260508184027 21 360 20.9 0.0 0.00 0.00 0.00 25 1008.5
20260508183531 20 360 20.9 0.0 0.00 0.00 0.00 26 1008.7
20260508183027 20 360 17.7 0.0 0.00 0.00 0.00 25 1008.7
20260508182527 21 360 17.7 0.0 0.00 0.00 0.00 25 1008.9
20260508182029 21 360 16.1 0.0 0.00 0.00 0.00 25 1009.1
20260508181526 21 360 14.5 0.0 0.00 0.00 0.00 25 1009.1
20260508181127 20 360 14.5 0.0 0.00 0.00 0.00 26 1009.3
20260508180525 20 360 16.1 0.0 0.00 0.00 0.00 25 1009.3
20260508180026 20 360 17.7 0.0 0.00 0.00 0.00 26 1009.4
20260508175524 20 360 14.5 0.0 0.00 0.00 0.00 26 1009.4
20260508175024 20 360 12.9 0.0 0.00 0.00 0.00 26 1009.4
20260508174524 20 360 12.9 0.0 0.00 0.00 0.00 26 1009.6
20260508174023 20 360 14.5 0.0 0.00 0.00 0.00 26 1009.7
20260508173524 20 360 14.5 0.0 0.00 0.00 0.00 26 1009.8
20260508173022 20 360 14.5 0.0 0.00 0.00 0.00 29 1009.9
20260508172522 20 360 14.5 0.0 0.00 0.00 0.00 28 1010.1
20260508172027 20 360 16.1 0.0 0.00 0.00 0.00 29 1010.1
20260508171523 20 360 16.1 0.0 0.00 0.00 0.00 28 1010.2
20260508171121 19 360 14.5 0.0 0.00 0.00 0.00 29 1010.4
20260508170521 19 360 14.5 0.0 0.00 0.00 0.00 28 1010.3
20260508170019 18 360 16.1 0.0 0.00 0.00 0.00 30 1010.5
20260508165518 18 360 16.1 0.0 0.00 0.00 0.00 30 1010.5
20260508165018 18 360 12.9 0.0 0.00 0.00 0.00 30 1010.5
20260508164517 18 360 12.9 0.0 0.00 0.00 0.00 31 1010.6
20260508164017 18 360 12.9 0.0 0.00 0.00 0.00 31 1010.7
20260508163516 18 360 11.3 0.0 0.00 0.00 0.00 31 1010.7
20260508163015 17 360 11.3 0.0 0.00 0.00 0.00 32 1010.7
20260508162514 17 360 9.7 0.0 0.00 0.00 0.00 32 1010.8
20260508162015 17 360 8.0 0.0 0.00 0.00 0.00 31 1010.9
20260508161514 17 360 9.7 0.0 0.00 0.00 0.00 33 1011.0
20260508161116 17 360 9.7 0.0 0.00 0.00 0.00 31 1010.9
20260508160511 17 360 9.7 0.0 0.00 0.00 0.00 32 1011.0
20260508160025 17 360 9.7 0.0 0.00 0.00 0.00 33 1011.0
20260508155510 17 360 9.7 0.0 0.00 0.00 0.00 32 1011.1
20260508155010 16 360 11.3 0.0 0.00 0.00 0.00 33 1011.1
20260508154510 16 360 11.3 0.0 0.00 0.00 0.00 34 1011.1
20260508154008 16 360 9.7 0.0 0.00 0.00 0.00 34 1011.2
20260508153508 16 360 11.3 0.0 0.00 0.00 0.00 34 1011.2
20260508153006 16 360 12.9 0.0 0.00 0.00 0.00 35 1011.3
20260508152509 16 360 14.5 0.0 0.00 0.00 0.00 35 1011.4
20260508152007 16 360 14.5 0.0 0.00 0.00 0.00 36 1011.4
20260508151508 15 360 12.9 0.0 0.00 0.00 0.00 36 1011.3
20260508151104 15 360 12.9 0.0 0.00 0.00 0.00 37 1011.3
20260508150505 15 360 11.3 0.0 0.00 0.00 0.00 37 1011.3
20260508150006 15 360 11.3 0.0 0.00 0.00 0.00 37 1011.4
20260508145503 14 360 14.5 0.0 0.00 0.00 0.00 38 1011.3
20260508145002 14 360 12.9 0.0 0.00 0.00 0.00 39 1011.3
20260508144502 14 360 12.9 0.0 0.00 0.00 0.00 39 1011.4
20260508144002 14 360 12.9 0.0 0.00 0.00 0.00 39 1011.4
20260508143600 14 360 12.9 0.0 0.00 0.00 0.00 38 1011.6
20260508143108 13 360 11.3 0.0 0.00 0.00 0.00 38 1011.5
20260508142558 13 360 11.3 0.0 0.00 0.00 0.00 39 1011.5
20260508142059 13 360 11.3 0.0 0.00 0.00 0.00 39 1011.5
20260508141605 13 360 12.9 0.0 0.00 0.00 0.00 40 1011.5
20260508141054 12 360 11.3 0.0 0.00 0.00 0.00 41 1011.4
20260508140555 12 360 11.3 0.0 0.00 0.00 0.00 41 1011.4
20260508140054 12 360 9.7 0.0 0.00 0.00 0.00 43 1011.4
20260508135553 11 360 9.7 0.0 0.00 0.00 0.00 46 1011.4
20260508135052 12 360 9.7 0.0 0.00 0.00 0.00 46 1011.4
20260508134551 11 360 8.0 0.0 0.00 0.00 0.00 46 1011.4
20260508134049 11 360 8.0 0.0 0.00 0.00 0.00 47 1011.4
20260508133548 11 360 6.4 0.0 0.00 0.00 0.00 50 1011.3
20260508133055 10 360 6.4 0.0 0.00 0.00 0.00 52 1011.4
20260508132545 10 360 6.4 0.0 0.00 0.00 0.00 53 1011.4
20260508132044 10 360 6.4 0.0 0.00 0.00 0.00 55 1011.4
20260508131544 9 360 4.8 0.0 0.00 0.00 0.00 58 1011.5
20260508131046 7 360 3.2 0.0 0.00 0.00 0.00 65 1011.5
20260508130543 7 360 3.2 0.0 0.00 0.00 0.00 65 1011.4
20260508130047 7 360 4.8 0.0 0.00 0.00 0.00 67 1011.4
20260508125541 6 360 4.8 0.0 0.00 0.00 0.00 69 1011.4
20260508125040 6 360 6.4 0.0 0.00 0.00 0.00 71 1011.4
20260508124540 6 360 6.4 0.0 0.00 0.00 0.00 72 1011.3
20260508124040 5 360 6.4 0.0 0.00 0.00 0.00 74 1011.3
20260508123539 4 360 6.4 0.0 0.00 0.00 0.00 75 1011.3
20260508123039 3 360 6.4 0.0 0.00 0.00 0.00 77 1011.3
20260508122538 3 360 4.8 0.0 0.00 0.00 0.00 78 1011.2
20260508122039 3 360 4.8 0.0 0.00 0.00 0.00 78 1011.2
20260508121555 2 360 4.8 0.0 0.00 0.00 0.00 79 1011.1
20260508121036 2 360 4.8 0.0 0.00 0.00 0.00 80 1011.0
20260508120537 1 360 4.8 0.0 0.00 0.00 0.00 80 1011.0
20260508120038 1 360 4.8 0.0 0.00 0.00 0.00 80 1010.9
20260508115539 1 360 4.8 0.0 0.00 0.00 0.00 80 1010.9
20260508115035 1 360 4.8 0.0 0.00 0.00 0.00 80 1010.7
20260508114537 1 360 4.8 0.0 0.00 0.00 0.00 81 1010.6
20260508114035 1 360 6.4 0.0 0.00 0.00 0.00 81 1010.7
20260508113539 1 360 6.4 0.0 0.00 0.00 0.00 82 1010.5
20260508113033 0 360 4.8 0.0 0.00 0.00 0.00 81 1010.5
20260508112533 0 360 4.8 0.0 0.00 0.00 0.00 81 1010.3
20260508112031 0 360 4.8 0.0 0.00 0.00 0.00 81 1010.3
20260508111531 0 360 4.8 0.0 0.00 0.00 0.00 80 1010.1
20260508111030 1 360 4.8 0.0 0.00 0.00 0.00 81 1010.1
20260508110529 1 360 4.8 0.0 0.00 0.00 0.00 81 1010.1
20260508110036 1 360 3.2 0.0 0.00 0.00 0.00 81 1010.1
20260508105529 1 360 3.2 0.0 0.00 0.00 0.00 80 1010.0
20260508105029 1 360 3.2 0.0 0.00 0.00 0.00 79 1010.0
20260508104527 1 360 1.6 0.0 0.00 0.00 0.00 79 1009.9
20260508104027 1 360 0.0 0.0 0.00 0.00 0.00 79 1009.8
20260508103526 1 360 1.6 0.0 0.00 0.00 0.00 79 1009.8
20260508103026 1 360 3.2 0.0 0.00 0.00 0.00 79 1009.8
20260508102525 1 360 4.8 0.0 0.00 0.00 0.00 79 1009.8
20260508102025 1 360 6.4 0.0 0.00 0.00 0.00 78 1009.8
20260508101524 1 360 6.4 0.0 0.00 0.00 0.00 78 1009.7
20260508101025 1 360 4.8 0.0 0.00 0.00 0.00 75 1009.5
20260508100523 1 360 4.8 0.0 0.00 0.00 0.00 75 1009.5
20260508100022 1 360 4.8 0.0 0.00 0.00 0.00 73 1009.5
20260508095525 2 360 6.4 0.0 0.00 0.00 0.00 73 1009.5
20260508095022 2 360 6.4 0.0 0.00 0.00 0.00 72 1009.4
20260508094525 2 360 6.4 0.0 0.00 0.00 0.00 70 1009.3
20260508094019 2 360 4.8 0.0 0.00 0.00 0.00 69 1009.2
20260508093520 3 360 3.2 0.0 0.00 0.00 0.00 70 1009.2
20260508093023 3 360 1.6 0.0 0.00 0.00 0.00 69 1009.1
20260508092519 3 360 1.6 0.0 0.00 0.00 0.00 69 1009.1
20260508092019 3 360 1.6 0.0 0.00 0.00 0.00 68 1009.2
20260508091518 3 360 3.2 0.0 0.00 0.00 0.00 66 1009.1
20260508091018 3 360 4.8 0.0 0.00 0.00 0.00 65 1008.9
20260508090523 3 360 4.8 0.0 0.00 0.00 0.00 65 1008.9
20260508090018 4 360 4.8 0.0 0.00 0.00 0.00 63 1008.9
20260508085524 5 360 6.4 0.0 0.00 0.00 0.00 61 1008.9
20260508085017 5 360 9.7 0.0 0.00 0.00 0.00 61 1008.9
20260508084518 6 360 12.9 0.0 0.00 0.00 0.00 61 1008.9
20260508084017 6 360 12.9 0.0 0.00 0.00 0.00 63 1008.8
20260508083516 8 360 12.9 0.0 0.00 0.00 0.00 67 1008.7
20260508083046 8 360 14.5 0.0 0.00 0.00 0.00 68 1008.5
20260508082515 8 360 12.9 0.0 0.00 0.00 0.00 69 1008.4
20260508082020 8 360 9.7 0.0 0.00 0.00 0.00 70 1008.2
20260508081514 8 360 6.4 0.0 0.00 0.00 0.00 70 1008.0
20260508081114 7 360 4.8 0.0 0.00 0.00 0.00 70 1007.9
20260508080511 7 360 4.8 0.0 0.00 0.00 0.00 71 1008.0
20260508080010 6 360 1.6 0.0 0.00 0.00 0.00 66 1008.1
20260508075509 5 360 0.0 0.0 0.00 0.00 0.00 65 1008.1
20260508075007 5 360 0.0 0.0 0.00 0.00 0.00 65 1008.0
20260508074506 4 360 0.0 0.0 0.00 0.00 0.00 65 1008.1
20260508074007 3 360 1.6 0.0 0.00 0.00 0.00 66 1008.2
20260508073502 3 360 0.0 0.0 0.00 0.00 0.00 65 1008.2
20260508073003 2 360 0.0 0.0 0.00 0.00 0.00 63 1008.2
20260508072602 1 360 0.0 0.0 0.00 0.00 0.00 62 1008.2
20260508072100 1 360 1.6 0.0 0.00 0.00 0.00 61 1008.3
20260508071600 1 360 1.6 0.0 0.00 0.00 0.00 59 1008.3